Weather History for Lewistown, MT

Change the Weather History Date:

Saturday, March 16, 2013

  Actual Average Record
Temperature  
Mean Temperature 35 °F 33 °F  
Max Temperature 46 °F 44 °F 69 °F (1994)
Min Temperature 23 °F 22 °F -19 °F (1943)
Degree Days  
Heating Degree Days 30 32  
Month to date heating degree days 531 550  
Since 1 July heating degree days 6039 6354  
Cooling Degree Days 0 0  
Month to date cooling degree days 0 0  
Year to date cooling degree days 0 0  
Moisture  
Dew Point 25 °F    
Average Humidity 75    
Maximum Humidity 100    
Minimum Humidity 49    
Precipitation  
Precipitation T in 0.04 in 0.50 in (1898)
Month to date precipitation 0.18 0.41  
Year to date precipitation 1.98 1.42  
Snow  
Snow 0.00 in - - ()
Snow Depth 0.00 in    
Sea Level Pressure  
Sea Level Pressure 29.94 in    
Wind  
Wind Speed 6 mph (ENE)    
Max Wind Speed 17 mph    
Max Gust Speed 22 mph    
Visibility 7 miles    
Events      
T = Trace of Precipitation, MM = Missing Value Source: NWS Daily Summary

Daily Weather History Graph

Daily Weather History Graph

Search for Another Location

Airport:

Trip Planner

Search our weather history database for the weather conditions in past years. The results will help you decide how hot, cold, wet, or windy it might be!

Date:

Astronomy

Mar. 16, 2013 Rise Set
Actual Time 7:28 AM MDT 7:25 PM MDT
Civil Twilight 6:57 AM MDT 7:55 PM MDT
Nautical Twilight 6:22 AM MDT 8:31 PM MDT
Astronomical Twilight 5:46 AM MDT 9:07 PM MDT
Moon 9:40 AM MDT (3/16) 12:00 AM MDT (3/16)
Length of Visible Light 12h 57m
Length of Day
11h 57m
Waxing Crescent, 23% of the Moon is Illuminated
Mar 16
Waxing Crescent
Mar 19
First Quarter
Mar 27
Full
Apr 2
Last Quarter
Apr 10
New

Hourly Weather History & Observations

Time (MDT) Temp. Windchill Dew Point Humidity Pressure Visibility Wind Dir Wind Speed Gust Speed Precip Events Conditions
12:54 AM 24.1 °F 15.2 °F 21.9 °F 91% 30.09 in 10.0 mi WNW 8.1 mph - N/A   Overcast
1:54 AM 24.1 °F 16.0 °F 21.9 °F 91% 30.07 in 10.0 mi South 6.9 mph - N/A   Mostly Cloudy
2:54 AM 25.0 °F - 23.0 °F 92% 30.04 in 10.0 mi Calm Calm - N/A   Mostly Cloudy
3:40 AM 23.0 °F 18.4 °F 21.2 °F 93% 29.99 in 4.0 mi WNW 3.5 mph - N/A   Overcast
3:52 AM 23.0 °F 18.4 °F 23.0 °F 100% 29.99 in 4.0 mi NW 3.5 mph - N/A   Overcast
3:54 AM 23.0 °F 15.8 °F 23.0 °F 100% 30.04 in 4.0 mi WNW 5.8 mph - N/A   Overcast
4:16 AM 23.0 °F 18.4 °F 21.2 °F 93% 29.98 in 2.0 mi WNW 3.5 mph - N/A   Overcast
4:30 AM 23.0 °F - 23.0 °F 100% 29.97 in 3.0 mi Calm Calm - N/A   Overcast
4:54 AM 24.1 °F 19.7 °F 21.9 °F 91% 30.04 in 3.0 mi NW 3.5 mph - N/A   Overcast
5:07 AM 24.8 °F 20.5 °F 23.0 °F 93% 29.97 in 2.0 mi West 3.5 mph - N/A   Overcast
5:27 AM 24.8 °F - 23.0 °F 93% 29.96 in 0.8 mi Calm Calm - N/A   Mist
5:42 AM 24.8 °F - 23.0 °F 93% 29.96 in 1.2 mi Calm Calm - N/A   Overcast
5:54 AM 24.1 °F - 23.0 °F 96% 30.03 in 1.0 mi Calm Calm - N/A   Mist
6:03 AM 24.8 °F 20.5 °F 23.0 °F 93% 29.96 in 0.8 mi SSE 3.5 mph - N/A   Mist
6:17 AM 24.8 °F - 23.0 °F 93% 29.96 in 1.2 mi Calm Calm - N/A   Overcast
6:31 AM 24.8 °F - 23.0 °F 93% 29.96 in 2.0 mi Calm Calm - N/A   Overcast
6:42 AM 24.8 °F - 24.8 °F 100% 29.95 in 1.2 mi Calm Calm - N/A   Overcast
6:54 AM 24.1 °F - 24.1 °F 100% 30.02 in 2.0 mi Calm Calm - N/A   Overcast
7:07 AM 24.8 °F - 23.0 °F 93% 29.95 in 4.0 mi Calm Calm - N/A   Overcast
7:54 AM 24.1 °F 15.2 °F 23.0 °F 96% 30.01 in 10.0 mi ESE 8.1 mph - N/A   Overcast
8:44 AM 24.8 °F 19.1 °F 23.0 °F 93% 29.92 in 10.0 mi ESE 4.6 mph - N/A   Overcast
8:54 AM 25.0 °F 20.7 °F 23.0 °F 92% 30.01 in 10.0 mi ESE 3.5 mph - N/A   Overcast
9:54 AM 27.0 °F 17.3 °F 24.1 °F 89% 29.99 in 10.0 mi ESE 10.4 mph - 0.00 in   Partly Cloudy
10:54 AM 33.1 °F 28.7 °F 25.0 °F 72% 29.97 in 10.0 mi East 4.6 mph - N/A   Partly Cloudy
11:54 AM 37.0 °F 32.4 °F 28.0 °F 70% 29.96 in 10.0 mi North 5.8 mph - N/A   Partly Cloudy
12:54 PM 37.9 °F 34.4 °F 28.9 °F 70% 29.96 in 10.0 mi NE 4.6 mph - N/A   Scattered Clouds
1:54 PM 44.1 °F - 27.0 °F 51% 29.92 in 10.0 mi Calm Calm - N/A   Partly Cloudy
2:54 PM 45.0 °F 42.6 °F 28.0 °F 52% 29.88 in 10.0 mi NW 4.6 mph - N/A   Clear
3:54 PM 45.0 °F 43.5 °F 27.0 °F 49% 29.86 in 10.0 mi NW 3.5 mph - N/A   Overcast
4:54 PM 41.0 °F 34.7 °F 28.9 °F 62% 29.86 in 10.0 mi East 10.4 mph - N/A   Overcast
5:54 PM 39.0 °F 30.6 °F 28.9 °F 67% 29.83 in 10.0 mi East 15.0 mph - 0.00 in   Scattered Clouds
6:54 PM 36.0 °F 26.3 °F 28.0 °F 73% 29.82 in 10.0 mi ESE 16.1 mph - N/A   Partly Cloudy
7:54 PM 33.1 °F 23.9 °F 27.0 °F 78% 29.81 in 10.0 mi East 12.7 mph - N/A   Overcast
8:54 PM 33.1 °F 24.4 °F 27.0 °F 78% 29.78 in 10.0 mi East 11.5 mph - N/A   Mostly Cloudy
9:54 PM 30.9 °F 21.2 °F 26.1 °F 82% 29.76 in 10.0 mi East 12.7 mph - N/A   Partly Cloudy
10:54 PM 32.0 °F 23.6 °F 26.1 °F 79% 29.70 in 10.0 mi East 10.4 mph - N/A   Overcast
11:54 PM 33.1 °F 26.1 °F 26.1 °F 75% 29.65 in 10.0 mi East 8.1 mph - N/A   Overcast